Regional Weather Roundup
Issued by NWS Goodland, KS

Home | Current Version | Previous Version | Graphics & Text | Print | Product List | Glossary On
Versions: 1 2 3 4 5 6 7 8 9 10 11 12 13 14 15 16 17 18 19 20 21 22 23 24 25 26 27 28 29 30 31 32 33 34 35 36 37 38 39 40 41 42 43 44 45 46 47 48 49 50
000
ASUS43 KGLD 210459
RWRGLD

GOODLAND FORECAST AREA HOURLY WEATHER ROUNDUP
NATIONAL WEATHER SERVICE GOODLAND KS
1100 PM MDT MON APR 20 2015

...OFFICIAL OBSERVATIONS...

CITY           SKY/WX    TMP DP  RH WIND       PRES   REMARKS
GOODLAND KS    PTCLDY    38  33  82 CALM      29.94F
HILL CITY KS   CLEAR     43  32  65 W5        29.91S
IMPERIAL NEB   CLEAR     37  28  70 W6        29.90S
MCCOOK NEB     CLEAR     38  31  76 SW8       29.88F
AKRON CO       CLEAR     38  26  62 SW9       29.93S
BURLINGTON CO  CLOUDY    41  32  70 W6        29.95F
LIMON CO       CLEAR     36  30  79 CALM      29.98S
$$

...UNOFFICIAL OBSERVATIONS...

CITY           SKY/WX    TMP DP  RH WIND       PRES   REMARKS
COLBY KS       CLEAR     37  36  93 SW7       29.93F
GOVE KS          N/A     38  32  79 MISG        N/A
LENORA KS        N/A     43  32  65 MISG        N/A
NORTON KS      CLEAR     39  27  60 SW6       29.88F
SHARON SPRINGS   N/A     46  38  75 MISG        N/A
KIT CARSON CO    N/A     48  35  61 MISG        N/A
$$


USA.gov is the U.S. government's official web portal to all federal, state and local government web resources and services.